Preview of NWS' New Version of Forecast
This preview is not operational and should not be used for support decisions.

Regional Weather Roundup (RWR)

Issued by National Weather Service (NWS)

                            
000
ASUS46 KPQR 202110
RWROR 

OREGON REGIONAL WEATHER ROUNDUP
NATIONAL WEATHER SERVICE PORTLAND OR
200 PM PDT TUE AUG 20 2019

NOTE: "FAIR" INDICATES FEW OR NO CLOUDS BELOW 12,000 FEET WITH
NO SIGNIFICANT WEATHER AND/OR OBSTRUCTIONS TO VISIBILITY.

ORZ001>013-202200-
NORTHWEST OREGON

  
CITY           SKY/WX    TMP DP  RH WIND       PRES   REMARKS
ASTORIA        CLOUDY    67  56  67 SW10      29.96F                  
TILLAMOOK      CLOUDY    72  55  56 W9        29.99S                  
NEWPORT        CLOUDY    63  55  77 SW10      30.03S                  
FLORENCE       FAIR      66  55  68 W8        30.02R                  
PORTLAND       PTSUNNY   82  55  39 NE5       29.92F                  
VANCOUVER WA   PTSUNNY   81  56  42 W5        29.92F                  
SCAPPOOSE      PTSUNNY   81  59  47 VRB5      29.92S                  
HILLSBORO      PTSUNNY   83  56  39 S9        29.93S                  
AURORA         MOSUNNY   82  57  42 SW8       29.94F                  
MCMINNVILLE    PTSUNNY   81  56  42 S7        29.93F                  
SALEM          MOSUNNY   81  56  42 SW5       29.93F                  
CORVALLIS      PTSUNNY   81  60  48 NW6       29.95F                  
EUGENE         PTSUNNY   83  56  39 SW9       29.96F                  
CRESWELL       SUNNY     84  55  37 CALM      29.93F                  
$$

ORZ021-028-202200-
SOUTHWEST OREGON

  
CITY           SKY/WX    TMP DP  RH WIND       PRES   REMARKS
NORTH BEND     PTSUNNY   64  57  78 W14       30.03R                  
BROOKINGS      PTSUNNY   65  56  72 W8        30.06R                  
ROSEBURG       MOSUNNY   83  57  41 W5        29.94F                  
SEXTON SUMMIT  SUNNY     78  52  40 VRB7      30.09S                  
GRANTS PASS    FAIR      88  50  27 S5G13     29.97F                  
MEDFORD        SUNNY     89  51  27 NW9       29.93F                  
$$

ORZ014>016-041-202200-
COLUMBIA GORGE

  
CITY           SKY/WX    TMP DP  RH WIND       PRES   REMARKS
TROUTDALE      MOSUNNY   83  56  39 N3        29.92F                  
HOOD RIVER     PTSUNNY   86  52  30 NW8       29.89F                  
THE DALLES     PTSUNNY   89  54  30 NW14      29.85F                  
$$

ORZ029>031-041-044-049-050-061>064-502-503-505>511-202200-
EASTERN OREGON

  
CITY           SKY/WX    TMP DP  RH WIND       PRES   REMARKS
MADRAS         SUNNY     88  45  22 N7        29.96F                  
REDMOND        SUNNY     93  43  17 VRB6      29.96F                  
BEND             N/A     91  41  17 W10       29.98                   
PRINEVILLE     SUNNY     88  43  20 NE10      29.98F                  
KLAMATH FALLS  SUNNY     82  32  16 VRB3      30.08F                  
LAKEVIEW       SUNNY     83  34  17 SE9G17    30.12F                  
HERMISTON      MOSUNNY   92  53  26 VRB3      29.86F                  
PENDLETON      SUNNY     91  47  21 NW10      29.89F                  
JOHN DAY       SUNNY     92  42  17 NW9       29.99F                  
MEACHAM        SUNNY     86  45  23 VRB5      30.03S                  
LA GRANDE      SUNNY     88  46  23 NW5       29.95F                  
BAKER CITY     SUNNY     93  49  22 VRB3      29.98F HX  90           
BURNS          SUNNY     89  40  17 S8        30.05F                  
ROME             N/A     94  32  11 S5        30.00F                  
ONTARIO        SUNNY     96  50  20 SE3       29.91F HX  93           
$$